Plattsburgh, NY

9:19 AM EDT on June 27, 2017 (GMT -0400)
Plattsburgh International

Weather History for KPBG - February, 2014

Change the Weather History Date:

Sunday, February 9, 2014

  Actual Average Record
Temperature  
Mean Temperature 16 °F 19 °F  
Max Temperature 21 °F 29 °F 47 °F (1991)
Min Temperature 10 °F 9 °F -17 °F (1951)
Degree Days  
Heating Degree Days 49 46  
Month to date heating degree days 414 424  
Since 1 July heating degree days 4960 4800  
Cooling Degree Days 0 0  
Month to date cooling degree days 0  
Year to date cooling degree days 0  
Moisture  
Dew Point 11 °F    
Average Humidity 71    
Maximum Humidity 84    
Minimum Humidity 57    
Precipitation  
Precipitation 0.01 in - 0.26 in (1952)
Month to date precipitation 0.22  
Year to date precipitation 0.86  
Sea Level Pressure  
Sea Level Pressure 30.05 in    
Wind  
Wind Speed 5 mph (North)    
Max Wind Speed 14 mph    
Max Gust Speed 17 mph    
Visibility 6 miles    
Events Snow    
T = Trace of Precipitation, MM = Missing Value Source: NWS Daily Summary

Daily Weather History Graph

Daily Weather History Graph

Search for Another Location

Airport or City:

Trip Planner

Search our weather history database for the weather conditions in past years. The results will help you decide how hot, cold, wet, or windy it might be!

Date:

Astronomy

Feb. 09, 2014 Rise Set
Actual Time 7:02 AM EST 5:14 PM EST
Civil Twilight 6:32 AM EST 5:44 PM EST
Nautical Twilight 5:57 AM EST 6:18 PM EST
Astronomical Twilight 5:24 AM EST 6:52 PM EST
Moon 12:47 PM EST (2/9) 3:09 AM EST (2/9)
Length of Visible Light 11h 12m
Length of Day
10h 11m
Waxing Gibbous, 77% of the Moon is Illuminated
Feb 9
Waxing Gibbous
Feb 14
Full
Feb 22
Last Quarter
Mar 1
New
Mar 8
First Quarter

Hourly Weather History & Observations

Time (EST) Temp. Windchill Dew Point Humidity Pressure Visibility Wind Dir Wind Speed Gust Speed Precip Events Conditions
12:53 AM 15.1 °F - 7.0 °F 70% 30.18 in 10.0 mi Calm Calm - N/A   Overcast
1:53 AM 15.1 °F - 7.0 °F 70% 30.17 in 10.0 mi Calm Calm - N/A   Overcast
2:53 AM 14.0 °F - 7.0 °F 74% 30.17 in 10.0 mi Calm Calm - N/A   Overcast
3:53 AM 12.9 °F - 7.0 °F 77% 30.17 in 10.0 mi Calm Calm - N/A   Overcast
4:53 AM 12.0 °F - 7.0 °F 80% 30.16 in 10.0 mi Calm Calm - N/A   Overcast
5:53 AM 12.9 °F - 7.0 °F 77% 30.15 in 10.0 mi Calm Calm - N/A   Overcast
6:53 AM 12.0 °F - 7.0 °F 80% 30.16 in 10.0 mi Calm Calm - N/A   Overcast
7:53 AM 10.0 °F - 6.1 °F 84% 30.18 in 10.0 mi Calm Calm - N/A   Overcast
8:53 AM 12.9 °F - 7.0 °F 77% 30.17 in 10.0 mi Calm Calm - N/A   Mostly Cloudy
9:53 AM 18.0 °F 12.7 °F 8.1 °F 65% 30.17 in 10.0 mi East 3.5 mph - N/A   Partly Cloudy
10:53 AM 19.0 °F 9.0 °F 9.0 °F 65% 30.16 in 10.0 mi SE 8.1 mph - 0.00 in   Clear
11:53 AM 19.9 °F 7.9 °F 10.0 °F 65% 30.11 in 10.0 mi SE 11.5 mph - 0.00 in   Partly Cloudy
12:53 PM 19.9 °F 7.9 °F 9.0 °F 62% 30.07 in 10.0 mi SE 11.5 mph - N/A   Clear
1:53 PM 19.9 °F 8.6 °F 9.0 °F 62% 30.06 in 10.0 mi SSE 10.4 mph - N/A   Clear
2:53 PM 19.9 °F 12.1 °F 9.0 °F 62% 30.02 in 10.0 mi SSE 5.8 mph - N/A   Clear
3:53 PM 21.0 °F 16.2 °F 9.0 °F 60% 30.02 in 10.0 mi NE 3.5 mph - N/A   Overcast
4:53 PM 21.0 °F 10.6 °F 8.1 °F 57% 30.01 in 10.0 mi NE 9.2 mph - N/A   Overcast
5:53 PM 19.0 °F 12.3 °F 10.0 °F 68% 30.02 in 9.0 mi NNE 4.6 mph - N/A   Overcast
6:53 PM 18.0 °F 8.7 °F 12.0 °F 78% 30.01 in 7.0 mi NNE 6.9 mph - N/A   Overcast
7:32 PM 17.1 °F 10.0 °F 14.0 °F 88% 29.99 in 2.5 mi North 4.6 mph - 0.00 in Snow Light Snow
7:53 PM 17.1 °F 7.6 °F 14.0 °F 88% 30.01 in 2.5 mi North 6.9 mph - 0.00 in Snow Light Snow
8:10 PM 17.1 °F 5.8 °F 14.0 °F 88% 29.98 in 2.0 mi North 9.2 mph - 0.00 in Snow Light Snow
8:17 PM 17.1 °F 6.6 °F 14.0 °F 88% 29.98 in 1.8 mi North 8.1 mph - 0.00 in Snow Light Snow
8:26 PM 17.1 °F 6.6 °F 14.0 °F 88% 29.98 in 2.0 mi North 8.1 mph - 0.00 in Snow Light Snow
8:53 PM 17.1 °F 6.6 °F 14.0 °F 88% 29.99 in 2.0 mi North 8.1 mph - 0.00 in Snow Light Snow
9:28 PM 17.1 °F 5.8 °F 14.0 °F 88% 29.97 in 1.8 mi North 9.2 mph - 0.00 in Snow Light Snow
9:53 PM 17.1 °F 7.6 °F 14.0 °F 88% 29.99 in 1.8 mi NNW 6.9 mph - 0.00 in Snow Light Snow
10:15 PM 17.1 °F 8.7 °F 14.0 °F 88% 29.97 in 2.0 mi NNW 5.8 mph - 0.00 in Snow Light Snow
10:28 PM 17.1 °F 8.7 °F 14.0 °F 88% 29.97 in 1.8 mi NNW 5.8 mph - 0.00 in Snow Light Snow
10:48 PM 17.6 °F 8.2 °F 14.0 °F 86% 29.96 in 1.5 mi NNW 6.9 mph - 0.00 in Snow Light Snow
10:53 PM 17.1 °F 7.6 °F 14.0 °F 88% 29.98 in 1.5 mi NNW 6.9 mph - 0.00 in Snow Light Snow
11:14 PM 17.1 °F 7.6 °F 12.9 °F 84% 29.96 in 2.0 mi NNW 6.9 mph - 0.00 in Snow Light Snow
11:22 PM 17.1 °F 6.6 °F 12.9 °F 84% 29.96 in 1.2 mi NNW 8.1 mph - 0.01 in Snow Light Snow
11:53 PM 17.1 °F 6.6 °F 12.9 °F 84% 29.98 in 2.0 mi NNW 8.1 mph - 0.01 in Snow Light Snow